Change the Weather History Date:

Wednesday, February 26, 2014

  Actual Average Record
Temperature  
Mean Temperature 22 °F 40 °F  
Max Temperature 27 °F 49 °F 76 °F (1944)
Min Temperature 17 °F 31 °F 0 °F (1967)
Degree Days  
Heating Degree Days 43 25  
Month to date heating degree days 834 738  
Since 1 July heating degree days 3768 3521  
Cooling Degree Days 0 0  
Month to date cooling degree days 0 0  
Year to date cooling degree days 0 0  
Moisture  
Dew Point 12 °F    
Average Humidity 63    
Maximum Humidity 88    
Minimum Humidity 37    
Precipitation  
Precipitation 0.02 in 0.12 in 2.56 in (2015)
Month to date precipitation 4.73 2.97  
Year to date precipitation 7.04 6.17  
Snow  
Snow 0.40 in 0.10 in 1.50 in (1894)
Month to date snowfall 8.7 4.4  
Since 1 July snowfall 19.3 11.1  
Snow Depth T in    
Sea Level Pressure  
Sea Level Pressure 30.08 in    
Wind  
Wind Speed 9 mph (WNW)    
Max Wind Speed 20 mph    
Max Gust Speed 25 mph    
Visibility 7 miles    
Events Snow    
T = Trace of Precipitation, MM = Missing Value Source: NWS Daily Summary

Daily Weather History Graph

Daily Weather History Graph

Search for Another Location

Airport or City:

Trip Planner

Search our weather history database for the weather conditions in past years. The results will help you decide how hot, cold, wet, or windy it might be!

Date:

Astronomy

Feb. 26, 2014 Rise Set
Actual Time 7:14 AM EST 6:28 PM EST
Civil Twilight 6:47 AM EST 6:55 PM EST
Nautical Twilight 6:17 AM EST 7:25 PM EST
Astronomical Twilight 5:46 AM EST 7:56 PM EST
Moon 4:57 AM EST (2/26) 3:44 PM EST (2/26)
Length of Visible Light 12h 07m
Length of Day
11h 14m
Waning Crescent, 10% of the Moon is Illuminated
Feb 26
Waning Crescent
Mar 1
New
Mar 8
First Quarter
Mar 16
Full
Mar 23
Last Quarter

Hourly Weather History & Observations

Time (EST) Temp. Windchill Dew Point Humidity Pressure Visibility Wind Dir Wind Speed Gust Speed Precip Events Conditions
12:54 AM 26.1 °F 16.2 °F 21.9 °F 84% 30.10 in 3.0 mi WNW 10.4 mph - 0.00 in Snow Light Snow
1:01 AM 26.1 °F 16.8 °F 21.9 °F 84% 30.08 in 2.5 mi WNW 9.2 mph - 0.00 in Snow Light Snow
1:17 AM 25.0 °F 14.2 °F 21.9 °F 88% 30.08 in 2.0 mi WNW 11.5 mph - 0.00 in Snow Light Snow
1:27 AM 25.0 °F 14.2 °F 21.9 °F 88% 30.07 in 1.5 mi WNW 11.5 mph - 0.00 in Snow Light Snow
1:38 AM 25.0 °F 14.2 °F 21.0 °F 85% 30.07 in 2.0 mi WNW 11.5 mph - 0.01 in Snow Light Snow
1:43 AM 25.0 °F 14.2 °F 19.9 °F 81% 30.07 in 2.5 mi WNW 11.5 mph - 0.01 in Snow Light Snow
1:54 AM 24.1 °F 13.7 °F 19.9 °F 84% 30.10 in 2.0 mi WNW 10.4 mph - 0.01 in Snow Light Snow
2:03 AM 24.1 °F 13.7 °F 21.0 °F 88% 30.08 in 1.5 mi WNW 10.4 mph - 0.00 in Snow Light Snow
2:16 AM 24.1 °F 13.1 °F 19.0 °F 81% 30.08 in 2.0 mi NW 11.5 mph - 0.00 in Snow Light Snow
2:27 AM 23.0 °F 12.4 °F 19.0 °F 85% 30.08 in 2.5 mi NW 10.4 mph - 0.00 in Snow Light Snow
2:54 AM 23.0 °F 13.9 °F 19.0 °F 85% 30.10 in 2.5 mi WNW 8.1 mph - 0.01 in Snow Light Snow
3:10 AM 23.0 °F 13.1 °F 19.0 °F 85% 30.07 in 4.0 mi WNW 9.2 mph - 0.00 in Snow Light Snow
3:54 AM 24.1 °F 13.7 °F 17.1 °F 75% 30.10 in 10.0 mi NW 10.4 mph - 0.00 in   Overcast
4:54 AM 23.0 °F 13.1 °F 17.1 °F 78% 30.12 in 5.0 mi WNW 9.2 mph - 0.00 in Snow Light Snow
5:36 AM 23.0 °F 12.4 °F 16.0 °F 74% 30.09 in 9.0 mi WNW 10.4 mph - 0.00 in Snow Light Snow
5:54 AM 23.0 °F 13.1 °F 17.1 °F 78% 30.14 in 8.0 mi WNW 9.2 mph - 0.00 in Snow Light Snow
6:32 AM 21.0 °F 8.6 °F 15.1 °F 78% 30.12 in 4.0 mi NNW 12.7 mph - 0.00 in Snow Light Snow
6:54 AM 19.9 °F 6.7 °F 10.9 °F 68% 30.16 in 9.0 mi NNW 13.8 mph - 0.00 in   Overcast
7:54 AM 18.0 °F 4.2 °F 1.9 °F 50% 30.18 in 10.0 mi NNW 13.8 mph 20.7 mph N/A   Overcast
8:54 AM 18.0 °F 4.2 °F 1.9 °F 50% 30.20 in 10.0 mi NNW 13.8 mph - N/A   Clear
9:54 AM 18.0 °F 6.1 °F 3.9 °F 54% 30.20 in 10.0 mi NW 10.4 mph - N/A   Clear
10:54 AM 19.9 °F 10.1 °F 3.9 °F 50% 30.18 in 10.0 mi NNW 8.1 mph - N/A   Clear
11:54 AM 21.0 °F 11.4 °F 5.0 °F 50% 30.17 in 10.0 mi NW 8.1 mph - N/A   Clear
12:54 PM 23.0 °F 13.9 °F 6.1 °F 48% 30.14 in 10.0 mi North 8.1 mph - N/A   Clear
1:54 PM 25.0 °F 16.3 °F 6.1 °F 45% 30.10 in 10.0 mi North 8.1 mph - N/A   Clear
2:54 PM 25.0 °F 18.1 °F 3.9 °F 41% 30.07 in 10.0 mi West 5.8 mph - N/A   Clear
3:54 PM 27.0 °F 18.0 °F 3.0 °F 36% 30.03 in 10.0 mi NW 9.2 mph - N/A   Clear
4:54 PM 25.0 °F 19.3 °F 3.9 °F 41% 30.01 in 10.0 mi West 4.6 mph - N/A   Clear
5:54 PM 25.0 °F 17.1 °F 3.9 °F 41% 30.00 in 10.0 mi West 6.9 mph - N/A   Clear
6:54 PM 21.9 °F 14.5 °F 3.9 °F 46% 30.00 in 10.0 mi WNW 5.8 mph - N/A   Clear
7:54 PM 19.9 °F 13.4 °F 5.0 °F 52% 30.00 in 10.0 mi West 4.6 mph - N/A   Clear
8:54 PM 19.9 °F 12.1 °F 7.0 °F 57% 29.97 in 10.0 mi SW 5.8 mph - N/A   Clear
9:54 PM 18.0 °F 7.7 °F 7.0 °F 62% 29.96 in 10.0 mi SW 8.1 mph - N/A   Clear
10:54 PM 19.0 °F 6.8 °F 6.1 °F 57% 29.97 in 10.0 mi WSW 11.5 mph - N/A   Clear
11:54 PM 18.0 °F 6.9 °F 6.1 °F 60% 29.96 in 10.0 mi WSW 9.2 mph - N/A   Clear